Flag for U.S.A. Weather past 2 weeks in Independence, Missouri, U.S.A.

Now
84 °F

Sunny.


Feels Like: 89 °F
Forecast: 73 / 89 °F
Wind: 9 mph from East

Location: Lee's Summit Municipal Airport

Current Time: Aug 27, 2014 at 3:04:30 PM

Latest Report: Aug 27, 2014 at 1:53 PM


Visibility: 10 mi

Pressure: 30.09 "Hg

Humidity: 65%

Dew point: 71 °F

Location of IndependenceLocation

Historic Weather in Independence — Graph

°F

Independence temperature yesterday

Maximum temperature yesterday: 92 °F (at 4:53 PM)
Minimum temperature yesterday: 75 °F (at 7:53 AM)
Average temperature yesterday: 82 °F

Past Weeks' High & Low Weather Summary

 TemperatureHumidityPressure
High96 °F (Aug 23, 4:53 PM)97% (Aug 13, 6:53 AM)30.16 "Hg (Aug 13, 6:53 AM)
Low58 °F (Aug 13, 5:53 AM)34% (Aug 23, 5:53 PM)29.72 "Hg (Aug 19, 5:53 AM)
Average79 °F69%29.93 "Hg
* Reported Aug 12 1:53 PM — Aug 27 1:53 PM, Independence, Weather by CustomWeather, © 2014

Note: Actual official high and low records may vary slightly from our data, if they occured in-between our weather recording intervals... More about our weather records

Advertising

Independence weather history for previous 24 hours

 ConditionsComfort  
Time TempWeatherWind HumidityBarometerVisibility
1:53 PM
Aug 27
84 °FSunny.9 mph65%30.09 "Hg10 mi
12:53 PM83 °FSunny.12 mph68%30.11 "Hg10 mi
11:53 AM81 °FPassing clouds.7 mph74%30.11 "Hg10 mi
10:53 AM80 °FSunny.9 mph74%30.11 "Hg10 mi
9:53 AM79 °FPassing clouds.12 mph77%30.10 "Hg10 mi
8:53 AM77 °FSunny.9 mph82%30.09 "Hg10 mi
7:53 AM74 °FPassing clouds.5 mph82%30.07 "Hg10 mi
6:53 AM73 °FClear.5 mph88%30.06 "Hg10 mi
5:53 AM73 °FClear.3 mph94%30.04 "Hg10 mi
4:53 AM73 °FClear.6 mph97%30.03 "Hg9 mi
3:53 AM73 °FClear.5 mph97%30.06 "Hg10 mi
2:53 AM75 °FClear.7 mph90%30.06 "Hg10 mi
1:53 AM76 °FClear.7 mph91%30.07 "Hg10 mi
12:53 AM76 °FClear.7 mph88%30.07 "Hg10 mi
11:53 PM
Aug 26
78 °FClear.8 mph84%30.06 "Hg10 mi
10:53 PM80 °FClear.8 mph79%30.06 "Hg10 mi
9:53 PM80 °FClear.8 mph79%30.06 "Hg10 mi
8:53 PM82 °FSunny.8 mph74%30.04 "Hg10 mi
7:53 PM84 °FSunny.10 mph70%30.04 "Hg10 mi
6:53 PM87 °FSunny.8 mph63%30.02 "Hg10 mi
5:53 PM91 °FSunny.5 mph54%30.00 "Hg10 mi
4:53 PM92 °FSunny.5 mph51%30.01 "Hg10 mi
3:53 PM91 °FSunny.3 mph52%30.03 "Hg10 mi
Weather by CustomWeather, © 2014

See weather overviewHow to use our weather pages